Météo par heure à Kyyanytsya

Ce jour, 5 Août, Jeudi

Heure Température Précipitation Vent Pression Humidité
00:00 +18°C° 0 mm 2 m/s 745 mmHg 57%
01:00 +17°C° 0 mm 2 m/s 745 mmHg 58%
02:00 +17°C° 0 mm 3 m/s 745 mmHg 59%
03:00 +17°C° 0 mm 3 m/s 744 mmHg 58%
04:00 +17°C° 0 mm 3 m/s 744 mmHg 57%
05:00 +18°C° 0 mm 3 m/s 744 mmHg 57%
06:00 +19°C° 0 mm 3 m/s 744 mmHg 54%
07:00 +21°C° 0 mm 3 m/s 744 mmHg 51%
08:00 +22°C° 0 mm 4 m/s 744 mmHg 49%
09:00 +23°C° 0 mm 4 m/s 744 mmHg 46%
10:00 +26°C° 0 mm 4 m/s 744 mmHg 43%
11:00 +27°C° 0 mm 4 m/s 744 mmHg 41%
12:00 +28°C° 0 mm 4 m/s 743 mmHg 39%
13:00 +29°C° 0 mm 4 m/s 743 mmHg 38%
14:00 +30°C° 0 mm 4 m/s 742 mmHg 36%
15:00 +29°C° 0 mm 4 m/s 742 mmHg 40%
16:00 +28°C° 0 mm 4 m/s 742 mmHg 44%
17:00 +28°C° 0 mm 4 m/s 741 mmHg 48%
18:00 +26°C° 0.2 mm 3 m/s 741 mmHg 53%
19:00 +24°C° 0.2 mm 3 m/s 741 mmHg 58%
20:00 +22°C° 0.2 mm 3 m/s 741 mmHg 64%
21:00 +22°C° 0 mm 3 m/s 741 mmHg 62%
22:00 +21°C° 0 mm 3 m/s 741 mmHg 60%
23:00 +21°C° 0 mm 3 m/s 740 mmHg 59%

Demain, 6 Août, Vendredi

Heure Température Précipitation Vent Pression Humidité
00:00 +21°C° 0 mm 3 m/s 740 mmHg 57%
01:00 +21°C° 0 mm 3 m/s 740 mmHg 56%
02:00 +21°C° 0 mm 3 m/s 740 mmHg 54%
03:00 +20°C° 0 mm 3 m/s 740 mmHg 56%
04:00 +20°C° 0 mm 3 m/s 740 mmHg 57%
05:00 +19°C° 0 mm 3 m/s 739 mmHg 59%
06:00 +21°C° 0 mm 3 m/s 739 mmHg 53%
07:00 +25°C° 0 mm 3 m/s 739 mmHg 47%
08:00 +27°C° 0 mm 4 m/s 739 mmHg 42%
09:00 +29°C° 0 mm 4 m/s 739 mmHg 37%
10:00 +32°C° 0 mm 4 m/s 738 mmHg 33%
11:00 +33°C° 0 mm 4 m/s 738 mmHg 29%
12:00 +34°C° 0 mm 4 m/s 738 mmHg 27%
13:00 +35°C° 0 mm 5 m/s 737 mmHg 25%
14:00 +36°C° 0 mm 5 m/s 737 mmHg 23%
15:00 +36°C° 0 mm 5 m/s 736 mmHg 25%
16:00 +36°C° 0 mm 4 m/s 736 mmHg 26%
17:00 +35°C° 0 mm 4 m/s 736 mmHg 28%
18:00 +31°C° 0 mm 3 m/s 736 mmHg 36%
19:00 +29°C° 0 mm 3 m/s 736 mmHg 45%
20:00 +26°C° 0 mm 3 m/s 736 mmHg 53%
21:00 +25°C° 0.1 mm 3 m/s 736 mmHg 57%
22:00 +25°C° 0.1 mm 3 m/s 736 mmHg 62%
23:00 +23°C° 0.1 mm 4 m/s 736 mmHg 66%

Après-demain, 7 Août, Samedi

Heure Température Précipitation Vent Pression Humidité
00:00 +22°C° 0.4 mm 3 m/s 737 mmHg 73%
01:00 +20°C° 0.4 mm 2 m/s 737 mmHg 80%
02:00 +19°C° 0.4 mm 2 m/s 737 mmHg 87%
03:00 +19°C° 0.4 mm 2 m/s 737 mmHg 88%
04:00 +20°C° 0.4 mm 3 m/s 737 mmHg 89%
05:00 +20°C° 0.4 mm 4 m/s 736 mmHg 89%
06:00 +21°C° 0.1 mm 3 m/s 737 mmHg 83%
07:00 +22°C° 0.1 mm 3 m/s 737 mmHg 76%
08:00 +24°C° 0.1 mm 3 m/s 737 mmHg 69%
09:00 +25°C° 0 mm 2 m/s 737 mmHg 64%
10:00 +27°C° 0 mm 2 m/s 738 mmHg 59%
11:00 +28°C° 0 mm 2 m/s 738 mmHg 53%
12:00 +29°C° 0 mm 2 m/s 738 mmHg 52%
13:00 +30°C° 0 mm 2 m/s 738 mmHg 50%
14:00 +30°C° 0 mm 2 m/s 738 mmHg 48%
15:00 +29°C° 0 mm 3 m/s 738 mmHg 53%
16:00 +28°C° 0 mm 4 m/s 739 mmHg 57%
17:00 +27°C° 0 mm 5 m/s 739 mmHg 61%
18:00 +26°C° 0.1 mm 4 m/s 739 mmHg 63%
19:00 +25°C° 0.1 mm 4 m/s 740 mmHg 65%
20:00 +23°C° 0.1 mm 4 m/s 740 mmHg 67%
21:00 +22°C° 0.2 mm 4 m/s 741 mmHg 66%
22:00 +21°C° 0.2 mm 4 m/s 741 mmHg 66%
23:00 +20°C° 0.2 mm 4 m/s 741 mmHg 65%

8 Août, Dimanche

Heure Température Précipitation Vent Pression Humidité
00:00 +19°C° 0 mm 4 m/s 742 mmHg 68%
01:00 +18°C° 0 mm 4 m/s 742 mmHg 71%
02:00 +17°C° 0 mm 4 m/s 742 mmHg 74%
03:00 +17°C° 0 mm 4 m/s 742 mmHg 76%
04:00 +16°C° 0 mm 3 m/s 743 mmHg 77%
05:00 +16°C° 0 mm 3 m/s 743 mmHg 79%
06:00 +18°C° 0 mm 4 m/s 743 mmHg 69%
07:00 +20°C° 0 mm 4 m/s 743 mmHg 60%
08:00 +22°C° 0 mm 5 m/s 743 mmHg 51%
09:00 +23°C° 0 mm 5 m/s 743 mmHg 45%
10:00 +26°C° 0 mm 5 m/s 744 mmHg 39%
11:00 +28°C° 0 mm 5 m/s 744 mmHg 34%
12:00 +28°C° 0 mm 4 m/s 744 mmHg 32%
13:00 +29°C° 0 mm 4 m/s 744 mmHg 31%
14:00 +30°C° 0 mm 4 m/s 743 mmHg 29%
15:00 +30°C° 0 mm 4 m/s 744 mmHg 31%
16:00 +29°C° 0 mm 4 m/s 744 mmHg 33%
17:00 +29°C° 0 mm 4 m/s 744 mmHg 35%
18:00 +27°C° 0 mm 3 m/s 744 mmHg 41%
19:00 +25°C° 0 mm 3 m/s 744 mmHg 47%
20:00 +22°C° 0 mm 3 m/s 744 mmHg 53%
21:00 +21°C° 0 mm 3 m/s 744 mmHg 54%
22:00 +20°C° 0 mm 3 m/s 744 mmHg 56%
23:00 +20°C° 0 mm 3 m/s 744 mmHg 57%

9 Août, Lundi

Heure Température Précipitation Vent Pression Humidité
00:00 +19°C° 0 mm 3 m/s 744 mmHg 58%
01:00 +19°C° 0 mm 3 m/s 744 mmHg 58%
02:00 +19°C° 0 mm 3 m/s 744 mmHg 59%
03:00 +19°C° 0 mm 3 m/s 744 mmHg 60%
04:00 +18°C° 0 mm 3 m/s 744 mmHg 61%
05:00 +18°C° 0 mm 3 m/s 744 mmHg 63%
06:00 +21°C° 0 mm 3 m/s 744 mmHg 57%
07:00 +24°C° 0 mm 3 m/s 744 mmHg 52%
08:00 +26°C° 0 mm 4 m/s 744 mmHg 46%
09:00 +28°C° 0 mm 3 m/s 744 mmHg 43%
10:00 +30°C° 0 mm 3 m/s 744 mmHg 40%
11:00 +33°C° 0 mm 3 m/s 744 mmHg 37%
12:00 +33°C° 0 mm 3 m/s 744 mmHg 35%
13:00 +34°C° 0 mm 3 m/s 744 mmHg 33%
14:00 +35°C° 0 mm 3 m/s 744 mmHg 31%
15:00 +35°C° 0 mm 3 m/s 743 mmHg 32%
16:00 +34°C° 0 mm 3 m/s 743 mmHg 33%
17:00 +34°C° 0 mm 3 m/s 743 mmHg 35%
18:00 +31°C° 0 mm 3 m/s 743 mmHg 41%
19:00 +28°C° 0 mm 3 m/s 743 mmHg 48%
20:00 +26°C° 0 mm 3 m/s 743 mmHg 54%
21:00 +25°C° 0 mm 3 m/s 743 mmHg 57%
22:00 +25°C° 0 mm 3 m/s 743 mmHg 59%
23:00 +24°C° 0 mm 3 m/s 743 mmHg 62%

10 Août, Mardi

Heure Température Précipitation Vent Pression Humidité
00:00 +22°C° 0 mm 3 m/s 743 mmHg 62%
01:00 +22°C° 0 mm 3 m/s 743 mmHg 62%
02:00 +21°C° 0 mm 3 m/s 743 mmHg 63%
03:00 +21°C° 0 mm 2 m/s 743 mmHg 62%
04:00 +21°C° 0 mm 2 m/s 743 mmHg 62%
05:00 +21°C° 0 mm 2 m/s 743 mmHg 62%
06:00 +24°C° 0 mm 2 m/s 743 mmHg 56%
07:00 +26°C° 0 mm 2 m/s 743 mmHg 51%
08:00 +29°C° 0 mm 2 m/s 743 mmHg 45%
09:00 +31°C° 0 mm 3 m/s 743 mmHg 40%
10:00 +33°C° 0 mm 3 m/s 743 mmHg 36%
11:00 +35°C° 0 mm 3 m/s 742 mmHg 31%
12:00 +35°C° 0 mm 4 m/s 742 mmHg 31%
13:00 +35°C° 0 mm 4 m/s 742 mmHg 30%
14:00 +35°C° 0 mm 5 m/s 742 mmHg 30%
15:00 +34°C° 0 mm 5 m/s 741 mmHg 32%
16:00 +33°C° 0 mm 5 m/s 741 mmHg 34%
17:00 +32°C° 0 mm 5 m/s 741 mmHg 36%
18:00 +29°C° 0 mm 4 m/s 741 mmHg 42%
19:00 +27°C° 0 mm 3 m/s 741 mmHg 48%
20:00 +25°C° 0 mm 3 m/s 741 mmHg 53%
21:00 +24°C° 0 mm 3 m/s 741 mmHg 56%
22:00 +24°C° 0 mm 2 m/s 741 mmHg 58%
23:00 +23°C° 0 mm 2 m/s 741 mmHg 61%
Voir plus

Nous avons besoin de votre consentement

Meteoprog et ses fournisseurs de services peuvent stocker et accéder à des données personnelles telles que des cookies, des identifiants d'appareils ou d'autres technologies similaires sur votre appareil et traiter ces données pour personnaliser le contenu et les publicités, ainsi que pour fournir des fonctionnalités de médias sociaux et analyser le trafic.

  • Stocker et/ou accéder à des informations sur votre appareil

    Des cookies, des identifiants d'appareils ou d'autres informations peuvent être stockés ou accessibles sur votre appareil aux fins indiquées ci-dessus.

  • Annonces et contenus personnalisés, mesure des annonces et des contenus, connaissance de l'audience et développement de produits

    Les annonces et le contenu peuvent être personnalisés en fonction d'un profil. D'autres données peuvent être ajoutées pour mieux personnaliser les annonces et le contenu. Les performances des publicités et du contenu peuvent être mesurées. Il est possible d'obtenir des informations sur le public qui a vu les publicités et le contenu. Ces données peuvent être utilisées pour développer ou améliorer l'expérience de l'utilisateur, les systèmes et les logiciels.

En cliquant sur "J'accepte", vous autorisez l'utilisation de cookies, des identifiants d'appareils, des balises web ou d'autres technologies similaires. Vos paramètres peuvent être modifiés dans le navigateur de votre appareil.

Dans certains cas, des intérêts légitimes peuvent être invoqués plutôt qu'un consentement. Vous pouvez en savoir plus à ce sujet dans notre Politique de confidentialité et de cookies.